#timestamp,LO_Frequency,Hit,StdDev 
1676070015.7,286047003.5,N
1676070035.5,286047003.7,N
1676070055.4,286047003.8,N
1676070075.2,286047002.8,N
1676070095.0,286047000.4,N
1676070096.0,286047000.4,N
1676070115.8,286046998.1,N
1676070135.6,286047000.3,N
1676070155.5,286046999.9,N
1676070175.3,286047001.2,N
1676070195.1,286047002.8,N
1676070215.9,286047002.3,N
1676070235.7,286047001.0,N
1676070255.6,286046999.5,N
1676070275.4,286046996.8,N
1676070295.2,286046995.2,N
1676070315.1,286046994.0,N
1676070316.0,286046994.0,N
1676070335.8,286046993.6,N
1676070355.6,286046996.2,N
1676070375.5,286046997.7,N
1676070395.3,286046998.5,N
1676070415.2,286046997.2,N
1676070435.9,286046999.3,N
1676070455.7,286046998.6,N
1676070475.6,286046997.3,N
1676070495.4,286046997.3,N
1676070515.2,286046995.9,N
1676070535.1,286046995.0,N
1676070536.0,286046995.0,N
1676070555.8,286046995.1,N
1676070575.7,286046997.0,N
1676070595.5,286047002.5,N
1676070615.3,286047001.5,N
1676070635.2,286047002.6,N
1676070655.0,286046998.3,N
1676070655.9,286046998.3,N
1676070675.7,286046997.7,N
1676070695.6,286046993.9,N
1676070715.4,286046993.7,N
1676070735.3,286046992.5,N
1676070755.1,286046992.2,N
1676070756.0,286046992.2,N
1676070775.8,286046993.9,N
1676070795.7,286046992.2,N
1676070815.5,286046992.9,N
1676070835.3,286046994.3,N
1676070855.2,286046995.3,N
1676070875.0,286046998.1,N
1676070875.9,286046998.1,N
1676070895.8,286047003.2,N
1676070915.6,286047004.4,N
1676070935.4,286047002.4,N
1676070955.3,286046998.6,N
1676070975.1,286046995.3,N
1676070995.8,286046996.8,N
1676071015.7,286046998.4,N
1676071035.5,286046997.4,N
1676071055.4,286046997.0,N
1676071075.2,286047000.2,N
1676071095.0,286047000.4,N
1676071095.9,286047000.4,N
1676071115.8,286046999.2,N
1676071135.6,286046995.7,N
1676071155.5,286046995.8,N
1676071175.3,286046998.9,N
1676071195.1,286046996.2,N
1676071215.9,286046993.3,N
1676071235.7,286046997.3,N
1676071255.5,286046995.9,N
1676071275.4,286046994.5,N
1676071295.2,286046992.9,N
1676071315.1,286046992.6,N
1676071316.0,286046992.6,N
1676071335.8,286046990.3,Y
1676071355.6,286046994.8,P
1676071375.5,286046995.7,P
1676071395.3,286046996.3,P
1676071415.2,286046993.5,Y
1676071435.9,286046997.3,P
1676071455.7,286046999.2,N
1676071475.6,286046997.0,N
1676071495.4,286046999.5,N
1676071515.2,286046997.0,N
1676071535.1,286046998.9,N
1676071536.0,286046998.9,N
1676071555.8,286047000.8,N
1676071575.7,286047000.2,N
1676071595.5,286047004.3,N
1676071615.3,286047002.7,N
1676071635.2,286047000.7,N
1676071655.0,286047000.1,N
1676071655.9,286047000.1,N
1676071675.8,286047000.2,N
1676071695.6,286047000.2,N
1676071715.4,286047002.3,N
1676071735.3,286047002.7,N
1676071755.1,286047000.1,N
1676071775.9,286047004.4,N
1676071795.7,286047002.1,N
1676071815.5,286047001.6,N
1676071835.4,286047001.9,N
1676071855.2,286047004.0,N
1676071875.0,286047005.9,N
1676071875.9,286047005.9,N
1676071895.8,286047003.5,N
1676071915.6,286047004.2,N
1676071935.5,286047003.5,N
1676071955.3,286047009.2,Y
1676071975.1,286047003.0,P
1676071995.9,286047005.6,P
1676072015.7,286047001.0,N
1676072035.6,286046998.5,N
1676072055.4,286046999.4,N
1676072075.2,286047000.4,N
1676072095.1,286046998.6,N
1676072096.0,286046998.6,N
1676072115.8,286046998.9,N
1676072135.6,286047000.8,N
1676072155.5,286047001.7,N
1676072175.3,286046999.9,N
1676072195.2,286046998.1,N
1676072215.9,286046999.6,N
1676072235.7,286046998.1,N
1676072255.6,286047002.2,N
1676072275.4,286047002.1,N
1676072295.3,286046996.8,N
1676072315.1,286046995.6,N
1676072316.0,286046995.6,N
1676072335.8,286046998.1,N
1676072355.7,286047001.2,N
1676072375.5,286046998.3,N
1676072395.3,286046997.7,N
1676072415.2,286046996.9,N
1676072435.0,286046997.3,N
1676072435.9,286046997.3,N
1676072455.8,286046999.5,N
1676072475.6,286046999.9,N
1676072495.4,286047001.9,N
1676072515.3,286046998.7,N
1676072535.1,286046998.2,N
1676072555.9,286047000.8,N
1676072575.7,286046996.8,N
1676072595.5,286046997.1,N
1676072615.4,286046999.4,N
1676072635.2,286046999.1,N
1676072655.0,286046997.8,N
1676072655.9,286046997.8,N
1676072675.8,286046997.1,N
1676072695.6,286046997.2,N
1676072715.5,286046996.8,N
1676072735.3,286046998.0,N
1676072755.1,286046993.5,Y
1676072775.9,286046995.4,P
1676072795.7,286046997.7,N
1676072815.5,286046997.5,N
1676072835.4,286046999.2,N
1676072855.2,286046998.3,N
1676072875.1,286046998.6,N
1676072876.0,286046998.6,N
1676072895.8,286047000.0,N
1676072915.6,286047000.2,N
1676072935.5,286047000.2,N
1676072955.3,286046999.7,N
1676072975.1,286046998.5,N
1676072995.9,286047001.2,N
1676073015.7,286047000.5,N
1676073035.6,286046996.9,N
1676073055.4,286046998.8,N
1676073075.2,286046996.9,N
1676073095.1,286046996.8,N
1676073096.0,286046996.8,N
1676073115.8,286046999.1,N
1676073135.6,286046999.0,N
1676073155.5,286047001.1,N
1676073175.3,286047001.0,N
1676073195.2,286047000.4,N
1676073215.9,286047000.2,N
1676073235.7,286046999.7,N
1676073255.6,286046998.6,N
1676073275.4,286046999.4,N
1676073295.2,286046996.8,N
1676073315.1,286046999.1,N
1676073316.0,286046999.1,N
1676073335.8,286046995.0,Y
1676073355.7,286046997.0,P
1676073375.5,286046997.1,N
1676073395.3,286047002.8,P
1676073415.2,286047004.2,N
1676073435.0,286047000.1,N
1676073435.9,286047000.1,N
1676073455.8,286047001.3,N
1676073475.6,286047004.2,N
1676073495.4,286047001.4,N
1676073515.3,286047004.3,N
1676073535.1,286047002.6,N
1676073555.8,286047000.7,N
1676073575.7,286046999.4,N
1676073595.5,286046999.6,N
